Location: *
(40.7190°N, 4.2480°W)
Time: 13:59:49
(UTC+00:00)

Helios 1A Rocket - Pass Details

Date: 18 February 2020
Orbit: 563 x 587 km, 98.3° (Epoch: 27 March)

Event Time Altitude Azimuth Distance (km) Brightness Sun altitude
Rises 06:09:40 0° 15° (NNE) 2,822 6.6 -11.7°
Reaches altitude 10° 06:11:51 10° 18° (NNE) 1,916 5.7 -11.3°
Maximum altitude 06:15:59 68° 101° (ESE) 630 3.3 -10.5°
Drops below altitude 10° 06:20:04 10° 186° (S) 1,890 5.6 -9.7°
Sets 06:22:12 0° 189° (S) 2,781 6.4 -9.3°
